Wind_Speed
12 17 19 23 23 22 19 21 23 21 21 25 24 23 23 20 19 17 15 14 12 11 9 9 10 9 9 8 7 6 7 7 10 9 7 9 9 8 8 7 7 8 9
17 14 19 22 21 20 19 20 21 20 20 23 23 23 23 20 17 15 13 12 11 9 8 8 9 9 8 7 6 5 5 6 8 8 8 6 5 3 6 6 7 8 9
15 17 18 20 18 18 17 20 19 19 20 22 22 23 22 18 15 13 10 10 9 7 7 7 8 7 6 5 5 4 4 5 5 6 5 4 5 7 7 7 8 9 10
16 18 21 19 17 17 19 21 21 22 24 23 21 21 18 16 14 12 10 8 7 6 5 6 5 4 4 4 4 4 3 2 3 5 3 3 5 5 6 6 8 9 11
18 20 20 18 19 19 19 21 22 25 26 19 17 17 17 15 13 10 8 7 6 5 4 3 3 3 4 4 5 5 3 3 1 3 2 2 3 4 4 5 7 9 10
20 20 20 20 20 19 18 19 21 23 23 15 15 14 14 12 10 7 6 5 3 2 1 2 3 4 5 6 6 5 4 2 3 1 3 3 2 3 4 5 7 9 10
20 19 20 20 19 18 18 18 19 19 18 17 14 13 13 11 8 6 5 3 1 1 2 3 5 5 6 6 6 5 4 4 3 3 4 5 3 3 5 6 8 9 8
20 19 18 18 17 18 18 20 20 19 18 16 13 12 11 9 7 5 3 1 2 2 3 5 6 7 7 7 6 5 5 4 5 5 4 6 6 4 5 8 8 8 11
19 18 17 18 17 19 20 20 19 18 16 15 13 11 10 7 5 4 3 3 3 3 5 6 7 7 7 6 5 5 6 6 7 4 4 7 7 6 6 9 9 9 10
18 17 19 18 18 19 17 16 16 16 15 15 13 11 8 5 4 4 4 5 5 6 7 7 7 6 6 6 4 5 5 5 7 7 6 6 6 9 9 9 10 11 11
18 17 18 19 18 18 16 14 13 14 14 13 11 8 6 6 5 6 6 8 7 6 7 6 6 6 7 6 4 3 5 6 7 8 8 8 9 10 11 11 11 11 12
20 19 20 19 18 18 16 15 15 14 14 14 12 10 8 8 7 8 9 7 8 5 4 3 4 5 6 7 7 8 9 8 7 8 8 8 8 11 12 11 12 12 14
25 21 21 22 20 19 18 17 16 15 14 13 12 12 10 8 7 5 4 4 1 4 3 3 5 4 5 7 8 9 11 10 9 10 10 11 12 12 12 13 13 13 14
25 26 24 22 21 21 20 18 16 16 17 16 15 14 13 10 7 4 3 3 4 6 4 4 7 6 7 11 12 11 10 9 11 12 12 11 10 11 12 14 15 14 15
25 27 25 24 23 22 21 18 17 17 17 15 15 16 15 13 8 5 4 5 6 6 6 8 8 8 10 12 12 13 12 11 10 9 9 10 10 13 12 14 14 15 16
26 27 25 25 24 23 23 21 18 18 17 16 15 14 15 13 12 9 8 8 8 8 9 10 10 11 11 12 11 10 11 11 11 11 9 10 11 13 15 14 15 16 17
29 29 28 27 23 23 23 17 17 17 17 16 16 15 15 14 12 11 10 10 8 8 9 10 10 11 10 8 8 9 12 12 11 11 10 9 9 11 13 15 15 16 17
28 31 29 26 25 23 23 20 19 18 18 21 20 18 15 14 13 12 12 11 9 8 9 9 8 8 8 10 12 13 12 11 9 9 9 11 11 11 14 13 15 16 17
31 30 31 28 27 25 21 20 19 16 14 14 15 15 14 14 12 12 13 12 9 9 9 7 6 7 10 11 13 14 13 11 9 7 8 9 9 12 14 15 13 16 18
33 32 31 30 28 23 21 20 19 17 17 16 15 13 12 13 13 12 11 8 8 7 5 5 6 8 10 11 13 14 13 6 11 6 10 10 9 7 8 13 13 11 16
33 33 31 31 31 27 26 24 21 20 19 18 17 15 14 11 10 10 7 6 5 5 6 6 7 7 8 7 8 13 5 1 9 9 7 9 10 11 10 5 5 8 11
34 35 33 32 29 29 28 25 23 22 18 17 15 14 13 12 12 8 6 6 6 6 6 7 7 6 4 4 2 2 3 2 3 8 9 10 15 11 9 7 5 6 7
30 35 35 35 33 32 28 26 21 15 14 13 16 13 12 11 10 7 6 7 5 6 6 5 6 5 4 3 2 1 1 1 5 3 4 8 17 15 14 10 9 9 9
33 37 36 34 35 35 30 28 26 22 19 19 15 15 14 13 11 8 7 6 7 7 6 7 4 4 5 3 2 2 2 1 1 3 4 7 15 15 15 15 14 11 11
33 36 36 35 35 36 33 30 29 25 21 16 15 15 16 16 13 11 11 9 9 9 8 5 5 5 6 4 3 3 3 2 2 2 3 7 13 12 12 15 13 12 14
31 35 36 37 36 35 32 29 29 27 23 19 17 15 16 18 15 15 15 13 9 11 8 6 6 6 6 6 6 5 5 4 4 4 3 3 5 7 15 16 13 11 15
Wind_Direction
144 135 139 136 143 146 145 142 139 132 133 142 148 145 142 137 132 122 115 116 115 112 106 101 95 85 77 74 76 77 81 96 102 100 101 98 98 95 86 89 109 114 116
148 143 146 138 139 144 141 144 142 139 137 141 147 150 149 145 140 131 122 124 122 124 120 114 98 92 83 75 68 67 79 100 111 109 106 106 82 73 87 93 108 119 117
149 153 157 146 149 149 148 146 147 141 138 142 150 155 155 153 151 148 137 131 128 129 123 106 94 87 81 65 51 53 75 102 117 130 127 116 85 82 109 97 104 117 129
153 155 161 154 150 153 155 151 149 151 147 144 147 154 161 162 153 151 145 132 134 138 121 94 82 70 59 47 26 26 42 90 133 149 152 123 110 104 112 110 118 112 125
150 154 156 156 157 154 153 152 153 157 154 147 149 155 157 153 149 148 141 139 142 133 106 92 77 52 18 14 4 4 18 25 137 199 198 177 104 120 121 121 133 132 132
151 154 157 160 160 155 154 151 156 160 165 156 152 156 154 154 149 141 143 138 127 103 76 23 21 2 1 354 345 345 349 341 335 268 209 191 150 150 150 144 152 145 146
154 158 159 161 160 160 155 154 153 153 160 161 160 161 163 162 156 148 147 137 89 352 335 348 345 346 335 329 327 333 330 310 326 327 234 221 214 184 175 143 158 163 146
158 161 159 159 156 156 157 159 155 161 167 170 165 162 162 163 162 157 166 224 307 313 320 333 334 330 320 313 321 330 320 315 298 311 259 223 233 202 202 164 168 171 171
162 159 161 160 159 163 165 164 167 169 168 166 162 158 164 170 170 189 232 278 284 288 309 321 318 327 321 308 323 338 333 316 309 300 273 242 228 218 195 186 179 182 172
165 169 166 166 167 167 169 173 173 171 170 168 168 171 173 182 211 233 258 281 283 288 296 313 327 345 344 342 346 347 351 330 310 301 288 261 236 225 207 206 194 190 183
172 176 172 173 173 176 182 181 179 186 185 187 189 191 188 213 225 253 262 280 288 300 332 339 344 355 343 345 348 359 339 322 317 306 291 282 248 226 209 208 205 198 206
184 186 183 185 184 184 184 182 190 192 194 197 205 207 207 225 242 258 282 281 277 279 320 332 344 327 331 340 322 319 323 310 301 300 297 298 251 234 217 212 210 206 207
188 192 194 193 195 197 194 193 193 191 199 203 209 215 221 235 248 262 280 312 287 274 290 320 323 333 340 344 330 320 316 304 293 296 285 290 258 251 228 218 216 213 214
194 194 195 197 202 203 203 207 209 210 207 212 216 221 223 242 246 255 263 290 302 308 289 312 328 324 337 330 331 329 335 307 297 298 285 292 255 252 244 233 220 222 217
196 199 200 202 207 209 210 212 215 218 215 218 224 229 231 246 256 257 241 275 294 302 286 301 313 320 328 328 321 314 317 315 305 300 296 276 269 254 260 245 235 224 225
199 204 205 207 209 211 213 216 219 223 222 226 225 229 238 250 264 264 254 269 279 284 290 295 306 313 322 327 329 324 320 311 307 297 297 291 265 257 262 266 246 231 226
203 202 205 207 209 214 214 211 225 226 229 230 233 237 244 256 252 259 263 267 274 284 297 298 301 311 320 324 330 329 320 310 303 303 298 294 277 270 269 263 256 246 235
206 206 207 210 212 216 218 216 225 231 233 234 242 244 244 249 252 256 263 267 265 283 293 294 300 310 321 331 332 332 328 315 307 303 299 291 290 284 274 274 262 260 253
211 210 210 211 214 216 219 223 226 227 231 226 224 234 238 243 244 259 261 264 267 281 288 289 293 308 317 326 326 327 331 325 323 325 317 306 303 284 276 278 271 264 261
213 215 214 214 217 218 222 228 230 230 230 229 229 232 241 246 257 268 274 256 261 268 275 285 292 303 308 320 322 325 331 17 54 30 54 46 33 358 291 272 269 271 265
214 215 217 218 221 221 218 220 223 230 232 236 238 243 245 247 256 271 260 258 242 248 276 283 293 302 316 325 327 334 6 52 49 58 44 38 25 23 28 0 306 286 278
212 215 217 217 220 218 221 220 221 225 230 237 237 237 243 248 244 232 233 231 254 268 274 288 286 286 298 308 320 353 355 354 313 47 55 43 20 18 12 10 356 333 319
208 212 215 216 218 220 221 218 217 225 233 232 230 226 220 221 208 217 238 263 254 259 275 279 281 265 264 261 303 228 30 315 334 347 6 22 15 21 20 9 1 349 337
213 218 218 217 220 221 222 219 219 222 223 229 226 221 223 210 207 221 232 250 239 245 261 282 259 254 239 236 220 182 279 249 325 325 333 347 4 19 30 31 32 20 13
212 217 220 221 223 224 223 225 222 226 231 232 228 231 218 203 208 219 216 220 223 238 261 245 248 248 249 245 219 228 251 281 207 169 281 316 344 8 13 16 15 24 15
206 214 220 221 225 222 223 224 223 225 227 228 231 225 205 203 212 215 218 218 227 241 243 233 241 254 251 243 238 239 219 201 210 230 266 288 299 328 342 353 356 2 0
Height
810 810 811 813 815 816 819 820 822 826 830 832 834 836 837 839 840 840 840 841 841 841 843 843 843 843 844 844 843 843 843 842 842 843 843 843 843 844 844 844 844 844 845
812 812 814 815 819 820 822 823 826 827 830 833 836 837 838 840 841 842 843 842 843 843 844 844 844 845 846 846 846 845 844 843 844 844 844 845 845 844 845 845 845 845 846
813 815 817 818 820 822 824 824 828 830 833 834 837 838 840 840 842 844 845 845 845 846 847 847 846 847 848 847 847 846 845 846 845 845 844 845 845 846 846 846 846 847 848
814 817 818 820 822 824 825 826 828 831 833 836 839 840 842 844 844 846 847 847 848 848 849 848 849 850 850 849 848 848 847 847 846 845 846 846 846 847 847 848 848 848 849
816 818 820 822 824 825 828 829 831 833 836 839 841 843 844 846 847 848 849 849 849 849 849 850 850 852 852 850 850 850 850 847 847 847 847 848 847 847 848 849 850 850 851
817 819 821 823 826 828 830 833 835 836 839 841 844 847 848 849 849 850 851 851 851 851 851 852 852 853 853 852 851 850 850 850 849 848 847 848 848 849 849 850 851 852 852
818 821 823 825 828 830 833 836 837 839 842 844 846 848 849 850 851 851 852 852 852 852 853 853 853 853 853 852 850 850 850 849 849 849 848 849 850 850 850 851 853 853 854
820 823 824 827 829 832 834 837 839 841 843 845 849 849 851 851 851 852 853 853 852 853 854 854 854 853 852 852 851 850 850 850 848 848 848 849 850 851 851 852 853 854 855
822 824 827 829 831 833 835 838 840 842 845 848 849 851 851 852 852 852 853 853 853 853 854 854 853 852 852 851 852 851 850 849 849 849 848 849 850 851 851 852 853 854 855
823 825 827 830 832 835 837 840 841 844 847 848 850 851 851 852 852 853 853 853 853 853 853 852 853 852 852 852 851 851 850 851 850 849 849 848 850 851 852 853 853 854 855
825 826 828 831 834 836 837 840 843 844 847 849 850 850 852 853 852 853 854 853 853 853 853 854 853 853 851 851 851 850 850 850 849 849 848 848 848 849 850 852 853 854 855
824 826 829 831 833 836 838 840 843 845 846 848 849 850 851 852 852 852 852 852 852 853 853 852 854 852 851 851 851 850 850 849 848 847 847 847 847 848 849 850 853 854 855
822 825 828 831 833 836 838 839 842 844 845 847 849 850 851 852 852 852 853 852 852 853 853 853 853 852 851 850 850 849 848 848 847 846 845 845 847 846 848 850 851 852 854
821 824 826 829 832 834 837 839 841 843 844 846 847 849 850 851 852 852 852 852 852 852 853 853 853 852 852 851 849 848 847 846 845 844 843 843 843 846 846 848 850 851 852
819 822 825 828 831 833 836 838 840 842 843 845 846 848 849 850 851 852 852 852 852 852 852 852 852 852 851 850 848 847 846 845 844 842 842 842 842 843 844 844 846 848 851
818 821 824 826 829 831 834 837 839 841 842 843 845 846 847 849 849 850 851 851 851 851 851 851 851 850 850 849 848 846 844 843 842 841 840 839 840 841 842 843 844 845 848
814 818 820 823 827 829 832 835 837 839 840 841 842 844 845 847 848 848 849 850 851 850 850 850 849 849 848 847 846 844 842 841 840 839 838 838 838 839 840 841 842 843 844
812 815 818 822 825 827 830 833 834 836 837 839 840 842 843 844 845 846 847 849 849 849 848 847 848 847 847 845 844 843 841 838 838 837 836 836 836 836 836 838 839 840 841
810 813 816 819 821 825 829 831 831 833 835 837 839 840 841 842 843 844 845 846 847 847 846 846 846 846 845 844 842 841 839 838 836 836 835 834 834 834 834 834 835 837 837
807 811 814 816 819 823 826 828 830 831 833 835 836 838 839 840 842 842 843 843 844 844 844 844 845 845 845 844 841 839 837 836 837 835 834 834 833 832 831 830 831 832 834
803 807 811 814 817 820 822 824 827 829 831 833 834 836 837 838 839 840 841 841 842 843 843 843 843 844 843 842 840 837 836 835 835 835 835 834 833 832 830 829 829 830 830
798 801 806 810 813 816 818 821 824 827 829 831 832 833 834 835 837 838 839 840 841 841 842 842 841 841 842 841 841 840 839 837 835 836 835 834 833 831 830 829 829 828 827
794 797 801 805 808 811 815 819 822 825 826 827 828 829 831 833 835 836 838 839 839 840 841 841 840 840 840 840 841 841 841 842 839 835 835 834 833 832 830 829 828 827 826
788 793 796 800 803 807 811 815 817 819 822 823 824 826 828 830 832 834 836 838 838 839 839 839 839 840 840 840 841 840 840 841 842 840 835 834 833 831 830 829 828 827 826
783 788 792 796 798 802 807 810 813 816 819 821 822 823 825 827 830 832 833 835 836 837 838 838 838 839 839 840 840 840 839 840 840 841 839 834 832 832 831 829 828 827 826
779 783 787 791 793 797 802 806 808 812 816 818 820 821 822 825 827 829 831 833 834 835 835 836 837 837 838 838 838 838 838 838 838 839 838 834 833 830 830 830 828 826 825